TimeMDT,TemperatureF,Dew PointF,Humidity,Sea Level PressureIn,VisibilityMPH,Wind Direction,Wind SpeedMPH,Gust SpeedMPH,PrecipitationIn,Events,Conditions,WindDirDegrees,DateUTC
12:53 AM,42.1,39.0,89,30.03,10.0,SSW,3.5,-,N/A,,Mostly Cloudy,200,2012-10-13 06:53:00
1:53 AM,42.1,39.0,89,30.02,10.0,Calm,Calm,-,N/A,,Scattered Clouds,0,2012-10-13 07:53:00
2:53 AM,42.1,39.0,89,30.02,10.0,West,3.5,-,N/A,,Overcast,260,2012-10-13 08:53:00
3:53 AM,42.1,39.0,89,30.02,10.0,Calm,Calm,-,N/A,,Overcast,0,2012-10-13 09:53:00
4:53 AM,43.0,37.9,82,30.03,10.0,Calm,Calm,-,N/A,,Overcast,0,2012-10-13 10:53:00
5:53 AM,43.0,39.0,86,30.04,10.0,West,4.6,-,N/A,,Overcast,270,2012-10-13 11:53:00
6:53 AM,43.0,39.0,86,30.04,10.0,Calm,Calm,-,0.00,,Overcast,0,2012-10-13 12:53:00
7:53 AM,43.0,39.0,86,30.05,10.0,Calm,Calm,-,N/A,,Overcast,0,2012-10-13 13:53:00
8:53 AM,44.1,37.9,79,30.07,10.0,West,9.2,-,0.00,,Overcast,260,2012-10-13 14:53:00
9:53 AM,43.0,39.9,89,30.10,10.0,West,8.1,-,0.01,Rain,Light Rain,280,2012-10-13 15:53:00
10:53 AM,44.1,41.0,89,30.12,10.0,West,8.1,-,0.03,Rain,Light Rain,260,2012-10-13 16:53:00
11:29 AM,44.6,41.0,87,30.17,10.0,West,6.9,-,0.00,Rain,Light Rain,260,2012-10-13 17:29:00
12:11 PM,44.6,41.0,87,30.18,9.0,WSW,4.6,-,0.01,Rain,Light Rain,250,2012-10-13 18:11:00
12:53 PM,45.0,41.0,86,30.15,10.0,Calm,Calm,-,0.02,Rain,Light Rain,0,2012-10-13 18:53:00
1:25 PM,44.6,41.0,87,30.18,10.0,Calm,Calm,-,0.01,Rain,Light Rain,0,2012-10-13 19:25:00
1:53 PM,45.0,42.1,90,30.14,10.0,ENE,3.5,-,0.01,,Overcast,60,2012-10-13 19:53:00
2:10 PM,44.6,41.0,87,30.18,10.0,ENE,3.5,-,N/A,,Overcast,70,2012-10-13 20:10:00
2:53 PM,46.0,42.1,86,30.16,10.0,Calm,Calm,-,N/A,,Overcast,0,2012-10-13 20:53:00
3:53 PM,46.9,42.1,83,30.17,10.0,ESE,3.5,-,N/A,,Overcast,120,2012-10-13 21:53:00
4:53 PM,46.9,42.1,83,30.17,10.0,East,4.6,-,N/A,,Overcast,80,2012-10-13 22:53:00
6:53 PM,46.9,42.1,83,30.20,10.0,Calm,Calm,-,N/A,,Overcast,0,2012-10-14 00:53:00
8:53 PM,46.9,43.0,86,30.23,10.0,Calm,Calm,-,N/A,,Overcast,0,2012-10-14 02:53:00
10:06 PM,46.4,44.6,93,30.30,10.0,NNE,3.5,-,0.00,,Overcast,20,2012-10-14 04:06:00
11:16 PM,46.4,44.6,93,30.32,10.0,SSE,5.8,-,0.00,,Overcast,150,2012-10-14 05:16:00
11:53 PM,46.0,44.1,93,30.28,10.0,NNE,3.5,-,0.00,,Overcast,20,2012-10-14 05:53:00